When you browse on this site, cookies collect data to enhance your experience and personalize the content and advertising you see.
Visit our Privacy Policy to learn more. By continuing to use the site, you agree to this use of cookies and data.
  • In United Kingdom
  • List of Countries
  • For 7 days
  • Water Temperature
  • Satellite Maps
  • Weather Map
  • Weather Widgets
  • user-avatar
    Login

    Hourly Weather Samak

    Today, 16 January, Wednesday

    Time Temperature Precipitation Wind Pressure Humidity
    00:00 +6°C° 0.1 mm 2 mps 675 mmHg 68%
    01:00 +7°C° 0.1 mm 1 mps 675 mmHg 67%
    02:00 +7°C° 0.1 mm 1 mps 675 mmHg 67%
    03:00 +6°C° 0.1 mm 1 mps 675 mmHg 67%
    04:00 +5°C° 0 mm 2 mps 675 mmHg 69%
    05:00 +4°C° 0 mm 2 mps 675 mmHg 68%
    06:00 +4°C° 0 mm 2 mps 675 mmHg 67%
    07:00 +3°C° 0 mm 2 mps 675 mmHg 66%
    08:00 +6°C° 0 mm 1 mps 675 mmHg 67%
    09:00 +7°C° 0 mm 1 mps 676 mmHg 68%
    10:00 +8°C° 0 mm 1 mps 676 mmHg 68%
    11:00 +9°C° 0 mm 1 mps 676 mmHg 67%
    12:00 +9°C° 0 mm 1 mps 676 mmHg 65%
    13:00 +10°C° 0 mm 1 mps 676 mmHg 64%
    14:00 +9°C° 0 mm 1 mps 676 mmHg 62%
    15:00 +8°C° 0 mm 1 mps 676 mmHg 60%
    16:00 +8°C° 0 mm 1 mps 675 mmHg 58%
    17:00 +6°C° 0 mm 2 mps 675 mmHg 59%
    18:00 +4°C° 0 mm 3 mps 675 mmHg 60%
    19:00 +3°C° 0 mm 4 mps 675 mmHg 60%
    20:00 +3°C° 0 mm 4 mps 675 mmHg 57%
    21:00 +2°C° 0 mm 5 mps 675 mmHg 54%
    22:00 +1°C° 0 mm 5 mps 675 mmHg 51%
    23:00 +2°C° 0 mm 5 mps 675 mmHg 49%

    Tomorrow, 17 January, Thursday

    Time Temperature Precipitation Wind Pressure Humidity
    00:00 +2°C° 0 mm 5 mps 674 mmHg 48%
    01:00 +2°C° 0 mm 5 mps 674 mmHg 46%
    02:00 +2°C° 0 mm 5 mps 674 mmHg 45%
    03:00 +2°C° 0 mm 5 mps 674 mmHg 45%
    04:00 +2°C° 0 mm 5 mps 674 mmHg 44%
    05:00 +2°C° 0 mm 5 mps 674 mmHg 44%
    06:00 +2°C° 0 mm 5 mps 674 mmHg 44%
    07:00 +3°C° 0 mm 5 mps 674 mmHg 44%
    08:00 +6°C° 0 mm 5 mps 674 mmHg 46%
    09:00 +7°C° 0 mm 5 mps 675 mmHg 48%
    10:00 +9°C° 0 mm 5 mps 675 mmHg 50%
    11:00 +11°C° 0 mm 4 mps 674 mmHg 50%
    12:00 +12°C° 0 mm 4 mps 674 mmHg 50%
    13:00 +13°C° 0 mm 4 mps 673 mmHg 50%
    14:00 +12°C° 0 mm 5 mps 673 mmHg 49%
    15:00 +10°C° 0 mm 5 mps 672 mmHg 47%
    16:00 +9°C° 0 mm 5 mps 672 mmHg 45%
    17:00 +8°C° 0 mm 5 mps 671 mmHg 42%
    18:00 +7°C° 0 mm 6 mps 671 mmHg 38%
    19:00 +7°C° 0 mm 6 mps 671 mmHg 34%
    20:00 +7°C° 0 mm 6 mps 671 mmHg 35%
    21:00 +7°C° 0 mm 6 mps 671 mmHg 35%
    22:00 +8°C° 0 mm 6 mps 670 mmHg 36%
    23:00 +8°C° 0.1 mm 6 mps 670 mmHg 39%

    Day after tomorrow, 18 January, Friday

    Time Temperature Precipitation Wind Pressure Humidity
    00:00 +8°C° 0.1 mm 6 mps 670 mmHg 43%
    01:00 +8°C° 0.1 mm 7 mps 669 mmHg 47%
    02:00 +9°C° 0.1 mm 6 mps 669 mmHg 48%
    03:00 +9°C° 0.1 mm 6 mps 669 mmHg 48%
    04:00 +9°C° 0.1 mm 6 mps 668 mmHg 49%
    05:00 +9°C° 0.2 mm 5 mps 668 mmHg 48%
    06:00 +9°C° 0.2 mm 5 mps 668 mmHg 48%
    07:00 +8°C° 0.2 mm 4 mps 668 mmHg 48%
    08:00 +8°C° 1.1 mm 5 mps 668 mmHg 54%
    09:00 +8°C° 1.1 mm 5 mps 668 mmHg 61%
    10:00 +8°C° 1.1 mm 6 mps 668 mmHg 67%
    11:00 +9°C° 1.4 mm 5 mps 668 mmHg 67%
    12:00 +10°C° 1.4 mm 5 mps 669 mmHg 67%
    13:00 +10°C° 1.4 mm 5 mps 669 mmHg 67%
    14:00 +10°C° 2.5 mm 4 mps 669 mmHg 72%
    15:00 +9°C° 2.5 mm 2 mps 670 mmHg 77%
    16:00 +10°C° 2.5 mm 1 mps 671 mmHg 82%
    17:00 +9°C° 1.4 mm 1 mps 672 mmHg 85%
    18:00 +7°C° 1.4 mm 2 mps 672 mmHg 87%
    19:00 +7°C° 1.4 mm 2 mps 673 mmHg 90%
    20:00 +6°C° 0.2 mm 2 mps 673 mmHg 88%
    21:00 +6°C° 0.2 mm 2 mps 674 mmHg 86%
    22:00 +6°C° 0.2 mm 2 mps 674 mmHg 84%
    23:00 +5°C° 0 mm 2 mps 674 mmHg 82%

    19 January, Saturday

    Time Temperature Precipitation Wind Pressure Humidity
    00:00 +5°C° 0 mm 2 mps 674 mmHg 80%
    01:00 +4°C° 0 mm 2 mps 674 mmHg 78%
    02:00 +4°C° 0 mm 2 mps 674 mmHg 76%
    03:00 +4°C° 0 mm 2 mps 674 mmHg 73%
    04:00 +4°C° 0 mm 2 mps 674 mmHg 71%
    05:00 +4°C° 0 mm 2 mps 674 mmHg 69%
    06:00 +4°C° 0 mm 2 mps 675 mmHg 68%
    07:00 +4°C° 0 mm 2 mps 675 mmHg 66%
    08:00 +5°C° 0 mm 2 mps 675 mmHg 65%
    09:00 +7°C° 0 mm 2 mps 675 mmHg 63%
    10:00 +9°C° 0 mm 1 mps 676 mmHg 62%
    11:00 +10°C° 0 mm 1 mps 675 mmHg 63%
    12:00 +10°C° 0 mm 1 mps 675 mmHg 64%
    13:00 +10°C° 0 mm 1 mps 674 mmHg 65%
    14:00 +9°C° 0 mm 1 mps 674 mmHg 66%
    15:00 +9°C° 0 mm 1 mps 674 mmHg 67%
    16:00 +8°C° 0 mm 1 mps 673 mmHg 68%
    17:00 +7°C° 0.1 mm 2 mps 673 mmHg 69%
    18:00 +6°C° 0.1 mm 2 mps 673 mmHg 69%
    19:00 +6°C° 0.1 mm 2 mps 673 mmHg 70%
    20:00 +5°C° 0.4 mm 2 mps 673 mmHg 74%
    21:00 +5°C° 0.4 mm 2 mps 673 mmHg 78%
    22:00 +4°C° 0.4 mm 2 mps 673 mmHg 83%
    23:00 +4°C° 0.7 mm 2 mps 674 mmHg 85%

    20 January, Sunday

    Time Temperature Precipitation Wind Pressure Humidity
    00:00 +3°C° 0.7 mm 2 mps 674 mmHg 87%
    01:00 +3°C° 0.7 mm 2 mps 674 mmHg 89%
    02:00 +2°C° 1.1 mm 2 mps 674 mmHg 90%
    03:00 +3°C° 1.1 mm 1 mps 675 mmHg 92%
    04:00 +2°C° 1.1 mm 1 mps 675 mmHg 93%
    05:00 +2°C° 0.5 mm 1 mps 675 mmHg 92%
    06:00 +2°C° 0.5 mm 1 mps 676 mmHg 91%
    07:00 +2°C° 0.5 mm 1 mps 676 mmHg 90%
    08:00 +1°C° 0.5 mm 2 mps 676 mmHg 89%
    09:00 +1°C° 0.5 mm 2 mps 677 mmHg 88%
    10:00 +1°C° 0.5 mm 2 mps 677 mmHg 86%
    11:00 +1°C° 0.4 mm 2 mps 677 mmHg 86%
    12:00 +1°C° 0.4 mm 2 mps 677 mmHg 85%
    13:00 +1°C° 0.4 mm 2 mps 677 mmHg 85%
    14:00 -1°C° 0.3 mm 2 mps 677 mmHg 85%
    15:00 -1°C° 0.3 mm 2 mps 677 mmHg 85%
    16:00 +1°C° 0.3 mm 1 mps 677 mmHg 85%
    17:00 +1°C° 0.2 mm 1 mps 677 mmHg 85%
    18:00 0°C° 0.2 mm 1 mps 678 mmHg 85%
    19:00 0°C° 0.2 mm 1 mps 678 mmHg 85%
    20:00 0°C° 0.1 mm 1 mps 678 mmHg 85%
    21:00 0°C° 0.1 mm 1 mps 679 mmHg 86%
    22:00 0°C° 0.1 mm 1 mps 679 mmHg 86%
    23:00 0°C° 0.1 mm 1 mps 679 mmHg 85%

    21 January, Monday

    Time Temperature Precipitation Wind Pressure Humidity
    00:00 0°C° 0.1 mm 1 mps 679 mmHg 85%
    01:00 0°C° 0.1 mm 1 mps 679 mmHg 84%
    02:00 0°C° 0.1 mm 1 mps 679 mmHg 83%
    03:00 0°C° 0.1 mm 1 mps 679 mmHg 82%
    04:00 0°C° 0.1 mm 1 mps 679 mmHg 81%
    05:00 0°C° 0.1 mm 1 mps 679 mmHg 80%
    06:00 0°C° 0.1 mm 1 mps 679 mmHg 79%
    07:00 +1°C° 0.1 mm 1 mps 679 mmHg 78%
    08:00 +1°C° 0.1 mm 1 mps 679 mmHg 75%
    09:00 +2°C° 0.1 mm 1 mps 679 mmHg 72%
    10:00 +3°C° 0.1 mm 1 mps 680 mmHg 69%
    11:00 +4°C° 0.1 mm 1 mps 679 mmHg 71%
    12:00 +3°C° 0.1 mm 2 mps 678 mmHg 73%
    13:00 +3°C° 0.1 mm 2 mps 678 mmHg 75%
    14:00 +3°C° 0.1 mm 2 mps 678 mmHg 77%
    15:00 +3°C° 0.1 mm 1 mps 678 mmHg 79%
    16:00 +3°C° 0.1 mm 1 mps 677 mmHg 81%
    17:00 +2°C° 0 mm 1 mps 677 mmHg 81%
    18:00 +2°C° 0 mm 1 mps 677 mmHg 81%
    19:00 +1°C° 0 mm 1 mps 677 mmHg 82%
    20:00 +1°C° 0 mm 1 mps 677 mmHg 79%
    21:00 +1°C° 0 mm 1 mps 677 mmHg 76%
    22:00 +1°C° 0 mm 1 mps 676 mmHg 73%
    23:00 +1°C° 0 mm 1 mps 676 mmHg 71%
    Show more